Almeria, Spain

11:01 PM CET en Noviembre 16, 2018 (GMT +0100)
Almeria

Tiempo Historia de LEAM - Noviembre, 2018

Change the Weather History Date:

Viernes, Noviembre 9, 2018

  Actual Average Record
Temperature  
Temperatura media 63 ° F -  
Temperatura máxima 69 ° F 63 ° F 75 ° F (2013)
Temperatura mínima 57 ° F 51 ° F 46 ° F (2001)
Degree Days  
Grados día de calefacción 2    
Growing Degree Days 13 (Base 50)    
Moisture  
Punto de rocío 46 ° F    
Average Humidity 58    
Maximum Humidity 88    
Minimum Humidity 20    
Precipitación  
Precipitación 0.00 pul 0.04 pul - ()
Presión al nivel del mar  
Presión al nivel del mar 30.07 pul    
Viento  
Velocidad del viento 11 mph ()    
Velocidad máxima del viento 23 mph    
Max Gust Speed 29 mph    
Visibilidad 7.6 Millas    
Eventos      
Averages and records for this station are not official NWS values.
T = Trace of Precipitation, MM = Missing Value Source: Averaged Metar Reports

Daily Weather History Graph

Daily Weather History Graph

Search for Another Location

Airport or City:

Astronomía

Nov. 09, 2018 Salida Puesta
Hora real 7:41 AM CET 6:04 PM CET
Crepúsculo civil 7:14 AM CET 6:32 PM CET
Crepúsculo náutico 6:43 AM CET 7:03 PM CET
Crepúsculo astronómico 6:12 AM CET 7:33 PM CET
Luna 9:15 AM CET (11/9) 7:41 PM CET (11/9)
Horas de luz 11h 18m
Horas de luz
10h 23m
Creciente, 4% of the Moon is Illuminated
Nov 9
Creciente
Nov 15
Cuarto creciente
Nov 23
Luna llena
Nov 30
Cuarto menguante
Dic 7
Nueva

Hourly Weather History & Observations

Hora (CET) Temp. Punto de rocío Humedad Presión Visibilidad Wind Dir Velocidad del viento Velocidad de ráfagas Precip Eventos Condiciones
12:00 AM 60.8 ° F 57.2 ° F 88% 30.01 pul 6.2 mi OSO 18.4 mph - N/A   Desconocido
12:30 AM 60.8 ° F 57.2 ° F 88% 30.01 pul 6.2 mi SO 19.6 mph - N/A   Desconocido
1:00 AM 60.8 ° F 57.2 ° F 88% 30.01 pul 6.2 mi OSO 15.0 mph - N/A   Desconocido
1:30 AM 59.0 ° F 55.4 ° F 88% 30.01 pul 6.2 mi OSO 16.1 mph - N/A   Desconocido
2:00 AM 60 ° F 57 ° F 87% 30.01 pul - SO 19.6 mph - -  
2:00 AM 60.8 ° F 55.4 ° F 82% 30.01 pul 6.2 mi SO 18.4 mph - N/A   Desconocido
2:30 AM 59.0 ° F 55.4 ° F 88% 30.04 pul 6.2 mi ONO 8.1 mph - N/A   Desconocido
3:00 AM 60 ° F 46 ° F 50% 30.03 pul - NNO 10.4 mph - -  
3:00 AM 59.0 ° F 46.4 ° F 63% 30.01 pul 6.2 mi NNO 8.1 mph - N/A   Desconocido
3:30 AM 59.0 ° F 42.8 ° F 55% 30.01 pul 6.2 mi ONO 6.9 mph - N/A   Desconocido
4:00 AM 59.0 ° F 42.8 ° F 55% 30.01 pul 6.2 mi NO 8.1 mph - N/A   Desconocido
4:30 AM 59.0 ° F 41.0 ° F 51% 30.04 pul 6.2 mi NO 6.9 mph - N/A   Desconocido
5:00 AM 58 ° F 42 ° F 43% 30.04 pul - Oeste 6.9 mph - -  
5:00 AM 59.0 ° F 41.0 ° F 51% 30.04 pul 6.2 mi ONO 5.8 mph - N/A   Parcialmente nublado
5:30 AM 57.2 ° F 41.0 ° F 55% 30.04 pul 6.2 mi NNO 6.9 mph - N/A   Parcialmente nublado
6:00 AM 58 ° F 38 ° F 36% 30.06 pul - Oeste 5.8 mph - -  
6:00 AM 59.0 ° F 37.4 ° F 45% 30.04 pul - Oeste 5.8 mph - N/A   Despejado
6:30 AM 59.0 ° F 33.8 ° F 39% 30.06 pul - Variable 4.6 mph - N/A   Despejado
7:00 AM 59.0 ° F 30.2 ° F 34% 30.06 pul - NO 18.4 mph - N/A   Despejado
7:30 AM 59.0 ° F 32.0 ° F 36% 30.06 pul 6.2 mi NO 12.7 mph - N/A   Parcialmente nublado
8:00 AM 59.0 ° F 32.0 ° F 36% 30.09 pul 6.2 mi ONO 16.1 mph - N/A   Parcialmente nublado
8:30 AM 59.0 ° F 33.8 ° F 39% 30.09 pul - NO 17.3 mph - N/A   Despejado
9:00 AM 60 ° F 34 ° F 26% 30.11 pul - NO 16.1 mph - -  
9:00 AM 60.8 ° F 33.8 ° F 36% 30.09 pul - NO 15.0 mph - N/A   Despejado
9:30 AM 60.8 ° F 33.8 ° F 36% 30.09 pul - NO 20.7 mph - N/A   Despejado
10:00 AM 64 ° F 33 ° F 21% 30.12 pul 31 mi ONO 23.0 mph - -   Nubes dispersas
10:00 AM 62.6 ° F 32.0 ° F 32% 30.09 pul - NO 21.9 mph - N/A   Despejado
10:30 AM 64.4 ° F 33.8 ° F 32% 30.09 pul - ONO 16.1 mph 28.8 mph N/A   Despejado
11:00 AM 66 ° F 35 ° F 20% 30.11 pul - ONO 11.5 mph - -  
11:00 AM 66.2 ° F 35.6 ° F 32% 30.09 pul - ONO 12.7 mph - N/A   Despejado
11:30 AM 66.2 ° F 37.4 ° F 35% 30.09 pul - Variable 6.9 mph 18.4 mph N/A   Despejado
12:00 PM 69 ° F 46 ° F 33% 30.11 pul - Oeste 11.5 mph - -  
12:00 PM 69.8 ° F 33.8 ° F 27% 30.09 pul - ONO 11.5 mph - N/A   Despejado
12:30 PM 66.2 ° F 42.8 ° F 43% 30.09 pul - Sur 5.8 mph - N/A   Despejado
1:00 PM 64.4 ° F 48.2 ° F 56% 30.09 pul - SSO 13.8 mph - N/A   Despejado
1:30 PM 68.0 ° F 37.4 ° F 33% 30.06 pul - OSO 12.7 mph - N/A   Despejado
2:00 PM 64.4 ° F 50.0 ° F 59% 30.06 pul - SSO 12.7 mph - N/A   Despejado
2:30 PM 66.2 ° F 50.0 ° F 56% 30.06 pul - SO 15.0 mph - N/A   Despejado
3:00 PM 65 ° F 54 ° F 58% 30.07 pul - SSO 13.8 mph - -  
3:00 PM 64.4 ° F 53.6 ° F 68% 30.06 pul - SO 12.7 mph - N/A   Despejado
3:30 PM 64.4 ° F 51.8 ° F 64% 30.06 pul - SO 12.7 mph - N/A   Despejado
4:00 PM 64 ° F 55 ° F 64% 30.06 pul 25 mi SO 11.5 mph - -   Nubes dispersas
4:00 PM 64.4 ° F 53.6 ° F 68% 30.06 pul - SO 10.4 mph - N/A   Despejado
4:30 PM 62.6 ° F 53.6 ° F 72% 30.06 pul - SSO 9.2 mph - N/A   Despejado
5:00 PM 62.6 ° F 53.6 ° F 72% 30.06 pul - SO 9.2 mph - N/A   Despejado
5:30 PM 60.8 ° F 53.6 ° F 77% 30.06 pul - SO 10.4 mph - N/A   Despejado
6:00 PM 61 ° F 55 ° F 73% 30.08 pul - OSO 9.2 mph - -  
6:00 PM 60.8 ° F 53.6 ° F 77% 30.06 pul - SO 9.2 mph - N/A   Despejado
6:30 PM 59.0 ° F 51.8 ° F 77% 30.06 pul - OSO 6.9 mph - N/A   Despejado
7:00 PM 59 ° F 52 ° F 70% 30.09 pul 19 mi NNO 3.5 mph - -   Parcialmente nublado
7:00 PM 59.0 ° F 50.0 ° F 72% 30.09 pul - Variable 2.3 mph - N/A   Despejado
7:30 PM 59.0 ° F 50.0 ° F 72% 30.09 pul - NE 4.6 mph - N/A   Despejado
8:00 PM 57 ° F 52 ° F 76% 30.12 pul - NE 6.9 mph - -  
8:00 PM 57.2 ° F 50.0 ° F 77% 30.09 pul - ENE 6.9 mph - N/A   Despejado
8:30 PM 57.2 ° F 50.0 ° F 77% 30.12 pul - NE 6.9 mph - N/A   Despejado
9:00 PM 57 ° F 49 ° F 67% 30.12 pul - NNE 6.9 mph - -  
9:00 PM 57.2 ° F 48.2 ° F 72% 30.12 pul - NE 6.9 mph - N/A   Despejado
9:30 PM 57.2 ° F 50.0 ° F 77% 30.12 pul - ENE 9.2 mph - N/A   Despejado
10:00 PM 57 ° F 52 ° F 76% 30.12 pul 19 mi NE 6.9 mph - -   Nubes dispersas
10:00 PM 57.2 ° F 50.0 ° F 77% 30.12 pul - NE 5.8 mph - N/A   Despejado
10:30 PM 59.0 ° F 50.0 ° F 72% 30.09 pul - NNE 6.9 mph - N/A   Despejado
11:00 PM 58 ° F 50 ° F 66% 30.13 pul - Norte 6.9 mph - -  
11:00 PM 59.0 ° F 48.2 ° F 67% 30.12 pul 6.2 mi Norte 6.9 mph - N/A   Desconocido
11:30 PM 57.2 ° F 46.4 ° F 67% 30.12 pul 6.2 mi NNE 4.6 mph - N/A   Desconocido